TimeEDT,TemperatureF,Dew PointF,Humidity,Sea Level PressureIn,VisibilityMPH,Wind Direction,Wind SpeedMPH,Gust SpeedMPH,PrecipitationIn,Events,Conditions,WindDirDegrees,DateUTC
12:56 AM,32.0,32.0,100,30.26,10.0,East,4.6,-,N/A,,Clear,80,2012-10-09 04:56:00
1:56 AM,34.0,32.0,92,30.27,10.0,East,5.8,-,N/A,,Partly Cloudy,80,2012-10-09 05:56:00
2:56 AM,34.9,32.9,92,30.25,10.0,ENE,5.8,-,N/A,,Overcast,70,2012-10-09 06:56:00
3:56 AM,36.0,32.9,89,30.24,10.0,ENE,5.8,-,N/A,,Overcast,70,2012-10-09 07:56:00
4:56 AM,36.9,34.0,89,30.25,10.0,ENE,5.8,-,N/A,,Overcast,70,2012-10-09 08:56:00
5:56 AM,37.9,34.9,89,30.25,10.0,East,3.5,-,N/A,,Overcast,80,2012-10-09 09:56:00
6:17 AM,37.4,35.6,93,30.23,10.0,ENE,3.5,-,N/A,,Overcast,70,2012-10-09 10:17:00
6:56 AM,38.8,36.0,89,30.25,10.0,East,3.5,-,N/A,,Overcast,80,2012-10-09 10:56:00
7:56 AM,39.9,36.9,89,30.26,10.0,Calm,Calm,-,N/A,,Overcast,0,2012-10-09 11:56:00
8:56 AM,41.9,37.9,86,30.26,10.0,Calm,Calm,-,N/A,,Overcast,0,2012-10-09 12:56:00
9:56 AM,45.9,38.8,76,30.25,10.0,ESE,3.5,-,N/A,,Mostly Cloudy,110,2012-10-09 13:56:00
10:56 AM,50.9,41.0,69,30.24,10.0,South,9.2,-,N/A,,Mostly Cloudy,170,2012-10-09 14:56:00
11:56 AM,54.0,39.9,59,30.21,10.0,South,8.1,-,N/A,,Scattered Clouds,170,2012-10-09 15:56:00
12:56 PM,56.8,39.9,53,30.18,10.0,South,6.9,-,N/A,,Partly Cloudy,170,2012-10-09 16:56:00
1:56 PM,59.0,38.8,47,30.14,10.0,SW,5.8,-,N/A,,Partly Cloudy,220,2012-10-09 17:56:00
2:56 PM,59.0,37.9,46,30.12,10.0,SSE,6.9,-,N/A,,Scattered Clouds,160,2012-10-09 18:56:00
3:56 PM,56.8,38.8,51,30.12,10.0,South,10.4,-,N/A,,Scattered Clouds,180,2012-10-09 19:56:00
4:56 PM,57.9,41.0,53,30.10,10.0,SSE,8.1,-,N/A,,Mostly Cloudy,150,2012-10-09 20:56:00
5:56 PM,56.8,39.9,53,30.09,10.0,SSE,11.5,-,N/A,,Mostly Cloudy,150,2012-10-09 21:56:00
6:56 PM,54.0,39.9,59,30.09,10.0,SE,10.4,-,N/A,,Mostly Cloudy,140,2012-10-09 22:56:00
7:56 PM,52.9,41.9,66,30.09,10.0,SSE,12.7,-,N/A,,Mostly Cloudy,150,2012-10-09 23:56:00
8:56 PM,48.9,43.0,80,30.09,10.0,SE,9.2,-,N/A,,Partly Cloudy,130,2012-10-10 00:56:00
9:56 PM,47.8,43.0,83,30.08,10.0,SSE,10.4,-,N/A,,Scattered Clouds,150,2012-10-10 01:56:00
10:56 PM,47.8,43.0,83,30.07,10.0,SSE,8.1,-,N/A,,Mostly Cloudy,160,2012-10-10 02:56:00
11:56 PM,48.9,45.0,86,30.04,10.0,SSE,10.4,-,N/A,,Partly Cloudy,150,2012-10-10 03:56:00